QPF
0.05 0.07 0.06 0.04 0.04 0.05 0.07 0.06 0.09 0.14 0.14 0.16 0.18 0.21 0.28 0.28 0.20 0.15 0.13 0.11 0.09 0.07 0.06 0.07 0.07 0.09 0.11 0.12 0.11 0.10 0.11 0.11 0.12 0.13 0.11 0.09 0.08 0.07 0.07 0.10 0.11 0.10 0.11
0.04 0.08 0.06 0.03 0.02 0.03 0.10 0.11 0.10 0.11 0.14 0.16 0.19 0.23 0.27 0.26 0.20 0.14 0.09 0.08 0.07 0.06 0.05 0.06 0.07 0.07 0.08 0.07 0.07 0.08 0.09 0.09 0.12 0.11 0.10 0.06 0.05 0.03 0.03 0.07 0.12 0.11 0.10
0.03 0.06 0.08 0.05 0.03 0.03 0.05 0.06 0.06 0.07 0.09 0.14 0.17 0.15 0.14 0.17 0.16 0.10 0.07 0.06 0.05 0.05 0.06 0.06 0.08 0.08 0.06 0.06 0.06 0.07 0.08 0.09 0.09 0.09 0.09 0.07 0.04 0.03 0.03 0.03 0.07 0.11 0.11
0.02 0.06 0.11 0.07 0.05 0.04 0.04 0.04 0.04 0.05 0.05 0.07 0.09 0.09 0.10 0.11 0.08 0.08 0.08 0.07 0.05 0.05 0.06 0.06 0.08 0.08 0.06 0.06 0.07 0.07 0.07 0.07 0.07 0.08 0.08 0.07 0.05 0.05 0.05 0.04 0.04 0.06 0.09
0.05 0.05 0.06 0.04 0.04 0.04 0.03 0.03 0.03 0.03 0.04 0.05 0.05 0.06 0.06 0.07 0.08 0.07 0.06 0.05 0.04 0.05 0.05 0.06 0.07 0.07 0.07 0.08 0.08 0.07 0.06 0.06 0.07 0.07 0.08 0.07 0.06 0.05 0.06 0.05 0.07 0.09 0.10
0.06 0.04 0.03 0.03 0.02 0.02 0.01 0.01 0.02 0.02 0.02 0.03 0.03 0.04 0.05 0.06 0.06 0.05 0.05 0.04 0.03 0.03 0.03 0.04 0.06 0.06 0.07 0.08 0.07 0.06 0.05 0.06 0.06 0.06 0.07 0.07 0.06 0.06 0.07 0.07 0.08 0.11 0.13
0.08 0.06 0.04 0.03 0.02 0.01 0.00 0.00 0.01 0.01 0.01 0.01 0.02 0.02 0.03 0.04 0.03 0.03 0.03 0.03 0.03 0.04 0.04 0.05 0.04 0.04 0.05 0.05 0.05 0.05 0.05 0.05 0.05 0.06 0.06 0.07 0.08 0.09 0.12 0.15 0.14 0.12 0.12
0.06 0.05 0.04 0.02 0.02 0.01 0.01 0.00 0.00 0.00 0.00 0.00 0.00 0.01 0.01 0.01 0.02 0.03 0.03 0.04 0.04 0.03 0.03 0.03 0.03 0.03 0.03 0.04 0.04 0.04 0.04 0.04 0.05 0.08 0.08 0.08 0.10 0.12 0.13 0.14 0.16 0.17 0.18
0.05 0.04 0.04 0.03 0.02 0.01 0.01 0.01 0.00 0.00 0.00 0.00 0.00 0.00 0.00 0.01 0.01 0.01 0.02 0.03 0.03 0.02 0.02 0.03 0.03 0.02 0.02 0.02 0.03 0.03 0.03 0.03 0.04 0.05 0.06 0.07 0.07 0.07 0.09 0.12 0.14 0.16 0.20
0.04 0.04 0.04 0.03 0.02 0.01 0.01 0.01 0.00 0.00 0.00 0.00 0.00 0.01 0.00 0.01 0.01 0.01 0.01 0.01 0.01 0.01 0.01 0.01 0.02 0.02 0.03 0.03 0.02 0.01 0.01 0.02 0.03 0.03 0.03 0.04 0.05 0.05 0.06 0.08 0.12 0.14 0.18
0.05 0.04 0.03 0.02 0.01 0.01 0.01 0.01 0.00 0.00 0.00 0.00 0.00 0.01 0.00 0.01 0.01 0.01 0.01 0.01 0.01 0.01 0.01 0.02 0.02 0.02 0.02 0.01 0.01 0.02 0.02 0.02 0.02 0.01 0.01 0.02 0.03 0.04 0.05 0.09 0.13 0.18 0.21
0.04 0.03 0.02 0.01 0.01 0.01 0.01 0.00 0.00 0.00 0.00 0.00 0.00 0.00 0.00 0.00 0.01 0.01 0.01 0.01 0.01 0.01 0.01 0.02 0.02 0.02 0.02 0.01 0.01 0.01 0.02 0.02 0.02 0.01 0.01 0.01 0.02 0.04 0.06 0.10 0.16 0.22 0.28
0.04 0.03 0.02 0.02 0.01 0.01 0.01 0.00 0.00 0.00 0.00 0.00 0.00 0.01 0.01 0.01 0.01 0.01 0.02 0.02 0.01 0.01 0.01 0.01 0.01 0.02 0.02 0.02 0.02 0.01 0.01 0.01 0.02 0.02 0.02 0.03 0.03 0.04 0.06 0.09 0.11 0.16 0.23
0.04 0.03 0.02 0.01 0.01 0.01 0.00 0.00 0.00 0.00 0.01 0.01 0.01 0.01 0.01 0.02 0.02 0.03 0.02 0.02 0.01 0.01 0.01 0.01 0.02 0.02 0.02 0.02 0.02 0.02 0.01 0.02 0.02 0.03 0.04 0.05 0.05 0.06 0.07 0.09 0.10 0.12 0.16
0.02 0.02 0.01 0.01 0.01 0.00 0.00 0.00 0.00 0.00 0.01 0.01 0.01 0.01 0.01 0.02 0.02 0.03 0.03 0.02 0.02 0.02 0.02 0.02 0.02 0.02 0.02 0.02 0.02 0.01 0.01 0.03 0.04 0.04 0.04 0.06 0.07 0.08 0.08 0.08 0.09 0.08 0.10
0.02 0.01 0.01 0.01 0.01 0.00 0.00 0.00 0.00 0.01 0.01 0.01 0.01 0.01 0.01 0.01 0.01 0.02 0.03 0.04 0.04 0.02 0.02 0.03 0.03 0.03 0.02 0.03 0.03 0.02 0.02 0.04 0.06 0.06 0.04 0.04 0.06 0.07 0.07 0.06 0.08 0.08 0.06
0.02 0.01 0.01 0.01 0.00 0.00 0.00 0.00 0.00 0.01 0.01 0.01 0.01 0.01 0.01 0.01 0.01 0.02 0.02 0.03 0.04 0.03 0.04 0.04 0.04 0.04 0.03 0.05 0.04 0.04 0.05 0.06 0.06 0.05 0.05 0.04 0.03 0.05 0.06 0.05 0.06 0.08 0.07
0.02 0.02 0.01 0.01 0.00 0.00 0.00 0.00 0.01 0.01 0.01 0.01 0.01 0.01 0.02 0.02 0.02 0.03 0.03 0.03 0.04 0.04 0.04 0.05 0.05 0.05 0.04 0.06 0.06 0.06 0.05 0.06 0.06 0.05 0.04 0.05 0.03 0.03 0.06 0.04 0.03 0.04 0.06
0.02 0.02 0.01 0.01 0.00 0.00 0.00 0.01 0.01 0.02 0.02 0.01 0.02 0.01 0.01 0.02 0.02 0.03 0.05 0.04 0.04 0.04 0.05 0.06 0.06 0.06 0.06 0.07 0.06 0.05 0.03 0.04 0.04 0.04 0.05 0.05 0.05 0.04 0.05 0.03 0.03 0.03 0.04
0.02 0.01 0.01 0.00 0.00 0.00 0.00 0.01 0.02 0.02 0.02 0.01 0.01 0.01 0.01 0.02 0.02 0.03 0.04 0.04 0.05 0.05 0.05 0.05 0.06 0.07 0.08 0.08 0.06 0.05 0.03 0.03 0.03 0.03 0.04 0.05 0.05 0.04 0.03 0.02 0.02 0.04 0.04
0.02 0.01 0.00 0.00 0.00 0.00 0.01 0.01 0.01 0.01 0.01 0.01 0.02 0.02 0.02 0.02 0.03 0.03 0.04 0.03 0.05 0.06 0.05 0.05 0.06 0.06 0.07 0.06 0.05 0.05 0.05 0.03 0.03 0.02 0.01 0.01 0.02 0.02 0.02 0.01 0.01 0.03 0.03
0.01 0.00 0.00 0.01 0.01 0.00 0.01 0.01 0.01 0.01 0.02 0.02 0.03 0.03 0.03 0.03 0.04 0.03 0.03 0.03 0.04 0.05 0.05 0.05 0.05 0.04 0.04 0.03 0.04 0.04 0.03 0.02 0.02 0.02 0.01 0.00 0.00 0.00 0.00 0.00 0.00 0.00 0.01
0.01 0.01 0.00 0.01 0.01 0.01 0.02 0.01 0.02 0.02 0.02 0.02 0.03 0.03 0.03 0.03 0.03 0.03 0.04 0.03 0.04 0.04 0.05 0.05 0.04 0.03 0.02 0.02 0.02 0.02 0.01 0.01 0.01 0.01 0.00 0.00 0.00 0.00 0.00 0.00 0.00 0.00 0.00
0.00 0.01 0.01 0.01 0.02 0.03 0.02 0.02 0.02 0.03 0.03 0.03 0.03 0.04 0.04 0.04 0.03 0.03 0.04 0.04 0.05 0.04 0.04 0.04 0.03 0.02 0.01 0.01 0.00 0.00 0.00 0.00 0.00 0.00 0.00 0.00 0.00 0.00 0.00 0.00 0.00 0.00 0.00
0.00 0.01 0.01 0.01 0.02 0.03 0.02 0.02 0.02 0.03 0.03 0.03 0.03 0.04 0.04 0.05 0.04 0.03 0.03 0.04 0.04 0.03 0.03 0.02 0.01 0.01 0.01 0.00 0.00 0.00 0.00 0.00 0.00 0.00 0.00 0.00 0.00 0.00 0.00 0.00 0.00 0.00 0.00
0.01 0.02 0.02 0.01 0.01 0.01 0.01 0.02 0.02 0.02 0.03 0.03 0.03 0.03 0.04 0.04 0.03 0.03 0.02 0.02 0.02 0.01 0.01 0.00 0.00 0.00 0.00 0.00 0.00 0.00 0.00 0.00 0.00 0.00 0.00 0.00 0.00 0.00 0.00 0.00 0.00 0.00 0.00
MSLP
1015.71 1015.60 1015.55 1015.56 1015.60 1015.64 1015.65 1015.61 1015.53 1015.41 1015.29 1015.19 1015.15 1015.18 1015.31 1015.52 1015.79 1016.10 1016.40 1016.67 1016.90 1017.08 1017.21 1017.31 1017.42 1017.56 1017.75 1018.00 1018.31 1018.68 1019.08 1019.50 1019.92 1020.31 1020.66 1020.97 1021.24 1021.47 1021.67 1021.85 1022.03 1022.21 1022.41
1015.66 1015.60 1015.60 1015.62 1015.63 1015.61 1015.54 1015.43 1015.29 1015.14 1015.02 1014.96 1014.98 1015.08 1015.27 1015.51 1015.79 1016.07 1016.33 1016.54 1016.71 1016.83 1016.92 1017.00 1017.10 1017.24 1017.42 1017.66 1017.97 1018.32 1018.71 1019.12 1019.54 1019.95 1020.34 1020.70 1021.02 1021.32 1021.58 1021.81 1022.03 1022.24 1022.45
1015.49 1015.52 1015.58 1015.64 1015.66 1015.60 1015.48 1015.31 1015.12 1014.95 1014.84 1014.82 1014.89 1015.06 1015.30 1015.58 1015.87 1016.13 1016.35 1016.51 1016.63 1016.70 1016.75 1016.81 1016.89 1017.01 1017.19 1017.41 1017.69 1018.02 1018.38 1018.77 1019.17 1019.58 1019.99 1020.39 1020.76 1021.11 1021.43 1021.72 1021.98 1022.24 1022.49
1015.25 1015.41 1015.58 1015.72 1015.77 1015.71 1015.56 1015.35 1015.12 1014.93 1014.83 1014.84 1014.96 1015.17 1015.46 1015.77 1016.07 1016.32 1016.51 1016.63 1016.70 1016.73 1016.75 1016.78 1016.85 1016.95 1017.10 1017.30 1017.53 1017.81 1018.12 1018.46 1018.82 1019.21 1019.61 1020.01 1020.42 1020.81 1021.18 1021.53 1021.85 1022.17 1022.47
1015.03 1015.34 1015.65 1015.89 1016.01 1015.98 1015.83 1015.60 1015.34 1015.14 1015.03 1015.05 1015.20 1015.45 1015.77 1016.10 1016.41 1016.65 1016.82 1016.91 1016.94 1016.94 1016.93 1016.94 1016.98 1017.05 1017.16 1017.31 1017.49 1017.69 1017.92 1018.18 1018.48 1018.80 1019.16 1019.54 1019.95 1020.36 1020.77 1021.18 1021.57 1021.97 1022.35
1014.89 1015.37 1015.83 1016.20 1016.40 1016.42 1016.29 1016.04 1015.77 1015.55 1015.43 1015.45 1015.60 1015.87 1016.20 1016.54 1016.85 1017.08 1017.24 1017.31 1017.32 1017.30 1017.27 1017.25 1017.25 1017.29 1017.35 1017.43 1017.52 1017.63 1017.75 1017.90 1018.09 1018.32 1018.60 1018.93 1019.31 1019.73 1020.17 1020.63 1021.11 1021.60 1022.09
1014.87 1015.50 1016.12 1016.61 1016.90 1016.98 1016.86 1016.63 1016.34 1016.10 1015.97 1015.97 1016.12 1016.38 1016.70 1017.04 1017.35 1017.58 1017.72 1017.79 1017.79 1017.75 1017.70 1017.65 1017.62 1017.61 1017.60 1017.59 1017.58 1017.57 1017.56 1017.57 1017.63 1017.74 1017.92 1018.17 1018.50 1018.91 1019.37 1019.89 1020.46 1021.05 1021.67
1014.97 1015.74 1016.48 1017.07 1017.44 1017.56 1017.48 1017.25 1016.96 1016.71 1016.55 1016.54 1016.67 1016.91 1017.22 1017.55 1017.85 1018.07 1018.21 1018.27 1018.26 1018.21 1018.15 1018.07 1018.00 1017.93 1017.84 1017.74 1017.61 1017.47 1017.32 1017.19 1017.10 1017.08 1017.14 1017.31 1017.58 1017.97 1018.45 1019.02 1019.67 1020.38 1021.13
1015.16 1016.04 1016.86 1017.51 1017.93 1018.09 1018.02 1017.81 1017.53 1017.27 1017.11 1017.08 1017.19 1017.41 1017.70 1018.01 1018.29 1018.50 1018.63 1018.69 1018.68 1018.63 1018.54 1018.44 1018.33 1018.19 1018.03 1017.83 1017.59 1017.32 1017.03 1016.77 1016.54 1016.40 1016.36 1016.44 1016.66 1017.01 1017.51 1018.13 1018.86 1019.68 1020.56
1015.43 1016.34 1017.19 1017.87 1018.30 1018.48 1018.44 1018.24 1017.97 1017.73 1017.57 1017.54 1017.64 1017.84 1018.10 1018.38 1018.64 1018.84 1018.96 1019.01 1019.00 1018.94 1018.84 1018.72 1018.57 1018.38 1018.14 1017.86 1017.53 1017.15 1016.76 1016.38 1016.05 1015.81 1015.68 1015.70 1015.87 1016.21 1016.72 1017.37 1018.17 1019.07 1020.06
1015.72 1016.63 1017.46 1018.11 1018.53 1018.71 1018.68 1018.50 1018.27 1018.06 1017.93 1017.90 1017.99 1018.17 1018.41 1018.66 1018.89 1019.07 1019.17 1019.22 1019.20 1019.14 1019.04 1018.90 1018.72 1018.49 1018.21 1017.87 1017.47 1017.03 1016.57 1016.13 1015.74 1015.44 1015.26 1015.24 1015.39 1015.71 1016.22 1016.90 1017.73 1018.69 1019.74
1016.02 1016.87 1017.64 1018.23 1018.62 1018.78 1018.77 1018.63 1018.45 1018.28 1018.18 1018.18 1018.27 1018.44 1018.65 1018.87 1019.07 1019.21 1019.30 1019.33 1019.32 1019.25 1019.15 1019.01 1018.83 1018.59 1018.29 1017.92 1017.50 1017.04 1016.56 1016.10 1015.69 1015.38 1015.20 1015.17 1015.31 1015.63 1016.14 1016.82 1017.65 1018.61 1019.66
1016.32 1017.09 1017.77 1018.29 1018.62 1018.77 1018.77 1018.68 1018.55 1018.45 1018.40 1018.42 1018.52 1018.68 1018.86 1019.04 1019.20 1019.31 1019.38 1019.41 1019.39 1019.34 1019.25 1019.13 1018.95 1018.72 1018.43 1018.08 1017.67 1017.23 1016.77 1016.34 1015.97 1015.69 1015.53 1015.52 1015.67 1016.00 1016.49 1017.14 1017.94 1018.86 1019.86
1016.64 1017.31 1017.88 1018.32 1018.60 1018.74 1018.76 1018.72 1018.65 1018.61 1018.61 1018.67 1018.77 1018.91 1019.06 1019.21 1019.33 1019.41 1019.46 1019.49 1019.48 1019.45 1019.39 1019.29 1019.15 1018.95 1018.70 1018.38 1018.02 1017.63 1017.23 1016.87 1016.56 1016.34 1016.24 1016.27 1016.44 1016.76 1017.23 1017.84 1018.57 1019.40 1020.31
1017.00 1017.56 1018.03 1018.39 1018.62 1018.75 1018.80 1018.81 1018.80 1018.82 1018.87 1018.95 1019.06 1019.18 1019.30 1019.40 1019.48 1019.54 1019.59 1019.61 1019.62 1019.62 1019.60 1019.55 1019.45 1019.30 1019.10 1018.84 1018.54 1018.22 1017.90 1017.62 1017.39 1017.26 1017.22 1017.30 1017.49 1017.81 1018.24 1018.79 1019.42 1020.14 1020.92
1017.41 1017.88 1018.26 1018.54 1018.73 1018.86 1018.93 1018.98 1019.03 1019.10 1019.18 1019.28 1019.38 1019.47 1019.56 1019.63 1019.68 1019.73 1019.77 1019.81 1019.85 1019.89 1019.92 1019.91 1019.87 1019.77 1019.62 1019.42 1019.19 1018.94 1018.70 1018.51 1018.37 1018.31 1018.35 1018.47 1018.69 1019.00 1019.39 1019.86 1020.40 1020.99 1021.63
1017.89 1018.27 1018.57 1018.79 1018.95 1019.07 1019.17 1019.25 1019.34 1019.44 1019.54 1019.64 1019.72 1019.80 1019.85 1019.89 1019.93 1019.97 1020.02 1020.09 1020.17 1020.26 1020.34 1020.38 1020.39 1020.34 1020.24 1020.09 1019.91 1019.73 1019.56 1019.44 1019.38 1019.39 1019.49 1019.66 1019.90 1020.20 1020.55 1020.95 1021.38 1021.85 1022.35
1018.41 1018.72 1018.95 1019.13 1019.26 1019.38 1019.48 1019.59 1019.70 1019.81 1019.91 1020.00 1020.07 1020.12 1020.15 1020.17 1020.21 1020.26 1020.34 1020.45 1020.58 1020.72 1020.84 1020.94 1020.99 1020.98 1020.91 1020.80 1020.66 1020.52 1020.41 1020.34 1020.34 1020.41 1020.55 1020.75 1021.01 1021.30 1021.62 1021.95 1022.30 1022.67 1023.05
1018.96 1019.20 1019.38 1019.52 1019.63 1019.74 1019.84 1019.95 1020.07 1020.18 1020.27 1020.34 1020.39 1020.42 1020.44 1020.46 1020.51 1020.59 1020.71 1020.87 1021.05 1021.24 1021.41 1021.55 1021.63 1021.65 1021.60 1021.51 1021.39 1021.28 1021.20 1021.17 1021.20 1021.31 1021.49 1021.72 1021.99 1022.27 1022.56 1022.85 1023.14 1023.42 1023.71
1019.49 1019.68 1019.81 1019.91 1020.01 1020.10 1020.20 1020.30 1020.41 1020.50 1020.58 1020.63 1020.67 1020.69 1020.72 1020.76 1020.84 1020.96 1021.13 1021.34 1021.58 1021.82 1022.03 1022.20 1022.30 1022.33 1022.29 1022.21 1022.11 1022.01 1021.94 1021.93 1022.00 1022.13 1022.33 1022.57 1022.85 1023.13 1023.41 1023.66 1023.90 1024.13 1024.34
1019.99 1020.12 1020.21 1020.29 1020.36 1020.44 1020.52 1020.61 1020.70 1020.77 1020.84 1020.88 1020.92 1020.95 1021.00 1021.07 1021.20 1021.38 1021.60 1021.87 1022.16 1022.44 1022.68 1022.87 1022.98 1023.01 1022.98 1022.90 1022.80 1022.71 1022.65 1022.66 1022.74 1022.89 1023.11 1023.36 1023.64 1023.92 1024.18 1024.42 1024.63 1024.81 1024.98
1020.42 1020.51 1020.57 1020.63 1020.68 1020.73 1020.80 1020.87 1020.94 1021.00 1021.05 1021.10 1021.15 1021.21 1021.29 1021.42 1021.61 1021.84 1022.13 1022.45 1022.78 1023.09 1023.36 1023.55 1023.67 1023.70 1023.67 1023.59 1023.49 1023.41 1023.36 1023.38 1023.47 1023.64 1023.86 1024.12 1024.40 1024.67 1024.92 1025.14 1025.32 1025.47 1025.60
1020.80 1020.86 1020.89 1020.92 1020.96 1021.00 1021.04 1021.10 1021.15 1021.21 1021.26 1021.32 1021.39 1021.49 1021.63 1021.82 1022.07 1022.37 1022.71 1023.08 1023.44 1023.77 1024.04 1024.24 1024.36 1024.39 1024.35 1024.28 1024.18 1024.11 1024.07 1024.10 1024.20 1024.37 1024.59 1024.85 1025.12 1025.38 1025.61 1025.81 1025.97 1026.10 1026.20
1021.13 1021.17 1021.18 1021.20 1021.22 1021.24 1021.28 1021.32 1021.37 1021.43 1021.49 1021.58 1021.69 1021.84 1022.04 1022.30 1022.61 1022.96 1023.35 1023.74 1024.12 1024.46 1024.73 1024.92 1025.02 1025.05 1025.01 1024.93 1024.85 1024.78 1024.75 1024.79 1024.89 1025.06 1025.27 1025.52 1025.77 1026.01 1026.23 1026.41 1026.55 1026.65 1026.72
1021.43 1021.45 1021.46 1021.47 1021.49 1021.50 1021.53 1021.57 1021.62 1021.69 1021.78 1021.90 1022.06 1022.27 1022.53 1022.84 1023.21 1023.61 1024.02 1024.43 1024.81 1025.14 1025.39 1025.56 1025.64 1025.65 1025.60 1025.52 1025.44 1025.38 1025.36 1025.40 1025.50 1025.66 1025.86 1026.08 1026.31 1026.53 1026.72 1026.87 1026.98 1027.06 1027.11
1021.71 1021.73 1021.75 1021.76 1021.77 1021.79 1021.82 1021.86 1021.92 1022.01 1022.13 1022.29 1022.50 1022.76 1023.07 1023.44 1023.84 1024.27 1024.70 1025.10 1025.47 1025.76 1025.98 1026.12 1026.17 1026.15 1026.09 1026.01 1025.92 1025.86 1025.84 1025.88 1025.97 1026.10 1026.28 1026.47 1026.67 1026.86 1027.02 1027.15 1027.25 1027.31 1027.34
Thickness
5694 5694 5693 5693 5692 5690 5689 5689 5688 5689 5690 5688 5688 5688 5687 5687 5689 5689 5690 5691 5691 5691 5691 5690 5690 5689 5689 5689 5688 5687 5686 5684 5683 5681 5679 5680 5681 5682 5684 5685 5685 5685 5685
5689 5688 5687 5686 5685 5684 5683 5682 5681 5682 5682 5682 5683 5683 5683 5682 5682 5683 5685 5685 5685 5685 5684 5685 5685 5684 5684 5684 5684 5682 5680 5679 5678 5676 5672 5672 5673 5676 5678 5678 5679 5678 5679
5683 5682 5681 5679 5678 5677 5676 5676 5675 5675 5676 5677 5678 5678 5677 5677 5676 5676 5677 5678 5678 5679 5679 5679 5679 5678 5678 5678 5678 5677 5676 5673 5672 5672 5670 5667 5667 5668 5669 5671 5672 5672 5672
5677 5675 5674 5671 5670 5670 5669 5669 5669 5669 5670 5671 5672 5670 5668 5667 5667 5667 5669 5670 5671 5671 5672 5673 5672 5672 5672 5672 5672 5672 5671 5670 5668 5666 5666 5666 5666 5663 5662 5662 5663 5664 5664
5672 5669 5667 5665 5664 5663 5662 5662 5662 5662 5663 5663 5663 5662 5661 5660 5660 5661 5661 5662 5663 5664 5664 5665 5665 5665 5665 5665 5665 5665 5665 5665 5664 5663 5661 5660 5659 5659 5657 5655 5655 5655 5655
5667 5663 5661 5659 5656 5655 5654 5654 5653 5653 5653 5654 5654 5654 5653 5652 5652 5652 5652 5653 5654 5655 5655 5656 5656 5657 5657 5658 5658 5658 5658 5658 5659 5658 5657 5656 5655 5655 5653 5651 5648 5647 5645
5660 5656 5653 5652 5648 5646 5645 5644 5644 5643 5644 5645 5645 5645 5644 5644 5644 5644 5644 5644 5645 5645 5646 5647 5648 5648 5649 5650 5651 5651 5651 5651 5652 5652 5652 5652 5653 5652 5650 5647 5643 5640 5637
5654 5650 5646 5644 5642 5639 5638 5637 5635 5634 5635 5635 5635 5636 5636 5635 5635 5634 5635 5635 5635 5636 5637 5639 5639 5640 5641 5642 5642 5643 5643 5644 5645 5646 5646 5647 5647 5646 5646 5644 5640 5635 5630
5648 5643 5639 5636 5633 5631 5630 5628 5627 5626 5626 5626 5627 5626 5626 5626 5626 5626 5626 5626 5626 5627 5628 5630 5631 5631 5632 5632 5633 5634 5635 5636 5637 5638 5639 5639 5640 5639 5640 5639 5638 5635 5629
5640 5635 5631 5627 5624 5622 5621 5619 5618 5617 5616 5617 5616 5616 5616 5616 5616 5616 5616 5616 5616 5618 5619 5621 5621 5622 5623 5623 5624 5625 5626 5627 5628 5629 5630 5631 5632 5633 5633 5633 5633 5632 5628
5633 5627 5622 5618 5616 5614 5612 5610 5609 5608 5607 5607 5606 5605 5605 5605 5606 5606 5605 5605 5606 5608 5609 5610 5612 5613 5613 5614 5615 5616 5617 5618 5619 5620 5622 5623 5624 5625 5625 5625 5625 5624 5622
5626 5620 5615 5610 5607 5605 5603 5601 5599 5598 5597 5597 5596 5595 5595 5595 5595 5595 5595 5595 5596 5597 5598 5600 5601 5603 5604 5605 5606 5607 5608 5610 5611 5612 5613 5615 5616 5617 5617 5617 5616 5615 5613
5618 5612 5606 5602 5599 5596 5594 5592 5590 5589 5588 5587 5586 5584 5583 5583 5583 5583 5583 5584 5585 5586 5587 5589 5590 5592 5594 5595 5596 5598 5600 5601 5602 5603 5605 5606 5607 5608 5608 5608 5607 5605 5602
5610 5604 5597 5593 5590 5587 5584 5582 5581 5580 5578 5577 5575 5573 5572 5571 5571 5571 5572 5573 5574 5575 5576 5578 5580 5582 5584 5586 5587 5590 5591 5592 5593 5594 5596 5598 5599 5599 5599 5598 5597 5595 5592
5602 5596 5589 5584 5580 5577 5574 5572 5570 5569 5568 5566 5565 5563 5562 5562 5562 5562 5563 5564 5564 5565 5567 5569 5571 5573 5575 5576 5578 5581 5582 5583 5584 5585 5587 5589 5590 5590 5590 5590 5588 5586 5582
5595 5589 5582 5577 5572 5568 5565 5563 5560 5558 5557 5556 5555 5554 5553 5553 5553 5552 5553 5553 5554 5556 5558 5559 5561 5563 5565 5566 5569 5572 5573 5574 5575 5576 5577 5579 5580 5580 5580 5579 5578 5577 5575
5587 5580 5574 5568 5562 5559 5556 5554 5551 5550 5548 5547 5546 5545 5544 5544 5543 5543 5543 5543 5544 5546 5547 5549 5551 5552 5554 5557 5561 5563 5565 5565 5566 5567 5569 5570 5569 5571 5570 5569 5569 5567 5565
5578 5570 5563 5558 5553 5549 5547 5545 5543 5541 5540 5538 5537 5536 5535 5534 5533 5533 5533 5533 5534 5536 5538 5539 5541 5543 5545 5548 5552 5554 5556 5557 5557 5559 5560 5560 5560 5562 5562 5562 5560 5558 5556
5569 5561 5555 5550 5545 5542 5539 5537 5535 5533 5532 5530 5528 5527 5526 5526 5525 5525 5524 5524 5526 5527 5529 5530 5532 5534 5536 5539 5543 5547 5548 5549 5549 5550 5551 5552 5553 5553 5555 5555 5552 5550 5548
5560 5553 5547 5542 5538 5534 5532 5530 5527 5526 5524 5522 5520 5520 5519 5519 5518 5517 5517 5518 5519 5520 5521 5522 5524 5526 5528 5531 5535 5539 5541 5541 5541 5541 5542 5544 5545 5546 5547 5548 5547 5544 5541
5552 5546 5541 5536 5532 5528 5525 5522 5520 5518 5516 5515 5514 5514 5513 5513 5512 5512 5512 5512 5513 5514 5515 5515 5517 5519 5522 5525 5528 5532 5534 5534 5534 5534 5534 5535 5538 5539 5540 5541 5540 5538 5537
5545 5540 5534 5529 5525 5522 5519 5516 5514 5511 5510 5510 5509 5508 5507 5508 5508 5508 5508 5508 5509 5509 5509 5510 5511 5513 5516 5519 5521 5525 5527 5528 5529 5528 5528 5530 5532 5533 5534 5534 5533 5533 5534
5539 5533 5529 5524 5520 5517 5514 5511 5508 5507 5505 5504 5503 5503 5502 5502 5503 5504 5504 5504 5504 5505 5505 5506 5507 5508 5510 5513 5516 5519 5521 5523 5524 5524 5525 5526 5528 5529 5529 5529 5529 5530 5530
5533 5528 5523 5519 5515 5513 5510 5507 5504 5503 5501 5500 5499 5498 5498 5498 5499 5500 5501 5501 5501 5501 5502 5503 5503 5505 5507 5509 5512 5515 5517 5520 5521 5521 5522 5524 5525 5526 5525 5526 5526 5526 5527
5528 5524 5520 5516 5513 5510 5507 5504 5502 5500 5499 5498 5497 5495 5495 5495 5495 5496 5496 5498 5498 5499 5500 5501 5502 5503 5505 5506 5510 5513 5515 5517 5519 5520 5521 5522 5523 5523 5523 5523 5523 5524 5525
5526 5522 5518 5514 5511 5508 5505 5503 5501 5499 5498 5497 5496 5494 5494 5494 5494 5495 5495 5496 5498 5499 5501 5501 5502 5503 5505 5507 5510 5513 5515 5517 5519 5520 5520 5520 5520 5521 5522 5522 5523 5523 5524